Atlantic - Newfoundland: Past 24 Hour Conditions

 

Burgeo

03:30 PM NDT 24 October 2014
This table is a summary of hourly weather conditions for the past 24 hours.
Date / Time
(NDT)
Wind(knots) Conditions Visibility(km) Pressure(kPa) Air tempC) Relative humidity(%) Dew pointC)
24 October 2014
15:30 ENE 20 gust 26 N/A N/A 100.4 12 87 10
14:30 ENE 17 gust 24 N/A N/A 100.5 12 90 10
13:30 ENE 17 N/A N/A 100.6 12 89 10
12:30 E 20 N/A N/A 100.8 12 82 9
11:30 ENE 20 gust 25 N/A N/A 100.9 12 82 9
10:30 ENE 24 N/A N/A 101.0 11 83 9
9:30 ENE 22 N/A N/A 101.1 11 82 8
8:30 ENE 19 gust 25 N/A N/A 101.1 11 82 8
7:30 ENE 15 N/A N/A 101.2 11 78 7
6:30 ENE 16 gust 22 N/A N/A 101.3 11 67 5
5:30 ENE 16 N/A N/A 101.4 11 58 3
4:30 ENE 13 N/A N/A 101.4 10 55 2
3:30 ENE 16 N/A N/A 101.5 10 57 2
2:30 ENE 11 gust 16 N/A N/A 101.6 10 59 2
1:30 ENE 8 N/A N/A 101.7 9 67 4
0:30 ENE 14 gust 20 N/A N/A 101.8 9 73 4
23 October 2014
23:30 ENE 12 N/A N/A 101.9 9 75 4
22:30 ENE 12 N/A N/A 102.0 8 74 4
21:30 ENE 9 N/A N/A 102.1 9 76 5
20:30 ENE 10 N/A N/A 102.1 8 79 5
19:30 ENE 6 N/A N/A 102.2 8 81 5
18:30 ESE 14 N/A N/A 102.2 9 78 6
17:30 ESE 11 N/A N/A 102.3 10 73 5
16:30 ESE 10 N/A N/A 102.4 10 78 6
15:30 E 11 N/A N/A 102.5 10 81 6
 
Map of Atlantic - Newfoundland marine weather areas Southwestern Grand Banks - 44138 Banquereau - 44139 Tail of the Bank - 44140 Nickerson Bank - 44251 Northeast Burgeo Bank - 44255 Blanc-Sablon Airport Cap Whittle Chevery Natashquan Airport Heath Point Miscou Island Grand Étang Ingonish Beach North Mountain St.Paul Island J.A. Douglas McCurdy Sydney Airport Charlottetown Airport East Point North Cape Argentia Bonavista Burgeo Cape Race Corner Brook Daniel's Harbour Englee Ferolle Point La Scie Port aux Basques Rocky Harbour Sagona Island St. Anthony Airport St. John's Int'l Airport St. Lawrence Stephenville Airport Twillingate Winterland Wreckhouse Cartwright Airport Mary's Harbour Grates Cove Pool's Island Marticot Island Long Pond Îles de la Madeleine Airport
Legend: buoyBuoy land stationLand Station